Location: Seven Kings
(51.5667°N, 0.1000°E)
Time: 03:12:25
(UTC+00:00)

Cosmos 883 Rocket - Pass Details

Date: 29 October 2020
Orbit: 950 x 995 km, 83.0° (Epoch: 27 November)

Event Time Altitude Azimuth Distance (km) Brightness Sun altitude
Rises 18:52:22 0° 181° (S) 3,634 7.5 -21.5°
Reaches altitude 10° 18:54:51 10° 180° (S) 2,687 6.7 -21.9°
Maximum altitude 19:00:58 75° 97° (E) 990 4.3 -22.8°
Drops below altitude 10° 19:07:06 10° 13° (NNE) 2,689 6.8 -23.7°
Sets 19:09:36 0° 12° (NNE) 3,638 7.5 -24.1°
